Location: Medlow Airstrip Trail, Medlow Bath NSW 2780, Australia
(33.6682°S, 150.3233°E)
Time: 07:58:53
(UTC+10:00)

Vanguard 1 - All Passes

Search period start: 16 September 2019 00:00
Search period end: 26 September 2019 00:00
Orbit: 654 x 3829 km, 34.3° (Epoch: 15 September)

Date Brightness Start Highest point End Pass type
(mag) Time Alt. Az. Time Alt. Az. Time Alt. Az.
16 Sep - 14:30:10 10° NNW 14:34:29 31° NE 14:40:38 10° E daylight
16 Sep - 16:48:23 10° WNW 16:54:33 87° NNE 17:06:00 10° E daylight
16 Sep - 19:07:56 10° W 19:16:47 87° NNW 19:33:55 10° ENE visible
16 Sep - 21:28:21 10° W 21:40:34 56° NNW 22:01:06 10° NE visible
16 Sep - 23:52:18 10° W 00:05:27 26° NW 00:22:13 10° N visible
17 Sep - 14:50:33 10° NW 14:55:12 45° NNE 15:02:17 10° E daylight
17 Sep - 17:09:19 10° W 17:15:44 87° S 17:27:47 10° E daylight
17 Sep - 19:28:56 10° W 19:38:07 80° NNW 19:55:44 10° ENE visible
17 Sep - 21:49:41 10° W 22:01:59 47° NNW 22:21:48 10° NE visible
18 Sep - 00:15:44 10° WNW 00:26:53 19° NW 00:40:17 10° N visible
18 Sep - 12:55:46 10° NNE 12:56:57 11° NE 12:58:12 10° NE daylight
18 Sep - 15:11:11 10° WNW 15:16:03 62° NNE 15:23:49 10° E daylight
18 Sep - 17:30:18 10° W 17:36:58 86° S 17:49:37 10° E daylight
18 Sep - 19:49:57 10° W 19:59:27 71° NNW 20:17:22 10° ENE visible
18 Sep - 22:11:15 10° W 22:23:25 38° NNW 22:42:03 10° NNE visible
19 Sep - 00:41:40 10° WNW 00:48:25 12° NW 00:55:53 10° NNW night (unlit)
19 Sep - 13:14:24 10° N 13:17:36 19° NE 13:21:15 10° E daylight
19 Sep - 15:31:58 10° WNW 15:37:01 77° NNE 15:45:19 10° E daylight
19 Sep - 17:51:16 10° W 17:58:12 89° S 18:11:28 10° E daylight
19 Sep - 20:11:02 10° W 20:20:47 61° NNW 20:38:43 10° NE visible
19 Sep - 22:33:10 10° W 22:44:52 30° NNW 23:01:45 10° NNE visible
20 Sep - 13:34:22 10° NNW 13:38:17 29° NNE 13:43:04 10° E daylight
20 Sep - 15:52:52 10° W 15:58:05 89° NNE 16:06:53 10° E daylight
20 Sep - 18:12:13 10° W 18:19:26 85° NNW 18:33:17 10° ENE visible
20 Sep - 20:32:11 10° W 20:42:08 51° NNW 20:59:43 10° NE visible
20 Sep - 22:55:43 10° W 23:06:22 22° NW 23:20:39 10° N visible
21 Sep - 13:54:48 10° NW 13:59:04 44° NNE 14:04:34 10° E daylight
21 Sep - 16:13:49 10° W 16:19:12 86° S 16:28:28 10° E daylight
21 Sep - 18:33:11 10° W 18:40:39 76° NNW 18:54:58 10° ENE visible
21 Sep - 20:53:31 10° W 21:03:30 41° NNW 21:20:21 10° NE visible
21 Sep - 23:19:33 10° WNW 23:27:56 16° NW 23:38:12 10° N visible
22 Sep - 11:58:59 10° NNE 12:00:34 12° NNE 12:02:07 10° NE daylight
22 Sep - 14:15:30 10° WNW 14:19:55 61° NNE 14:25:57 10° E daylight
22 Sep - 16:34:46 10° W 16:40:20 86° S 16:50:08 10° E daylight
22 Sep - 18:54:10 10° W 19:01:53 65° NNW 19:16:28 10° ENE visible
22 Sep - 21:15:07 10° W 21:24:56 33° NNW 21:40:29 10° NNE visible
23 Sep - 12:18:03 10° NNW 12:21:22 19° NNE 12:24:41 10° ENE daylight
23 Sep - 14:36:20 10° WNW 14:40:53 78° NNE 14:47:17 10° E daylight
23 Sep - 16:55:44 10° W 17:01:29 90° SE 17:11:48 10° E daylight
23 Sep - 19:15:14 10° W 19:23:07 54° NNW 19:37:41 10° NE visible
23 Sep - 21:37:09 10° W 21:46:24 25° NNW 21:59:58 10° NNE visible
24 Sep - 12:38:10 10° NW 12:42:12 30° NNE 12:46:20 10° E daylight
24 Sep - 14:57:17 10° W 15:01:55 90° S 15:08:39 10° E daylight
24 Sep - 17:16:40 10° W 17:22:37 82° NNW 17:33:25 10° ENE daylight
24 Sep - 19:36:24 10° W 19:44:24 44° NNW 19:58:34 10° NE visible
24 Sep - 22:00:01 10° WNW 22:07:56 18° NNW 22:18:28 10° N visible
25 Sep - 12:58:43 10° NW 13:03:03 45° NNE 13:07:40 10° E daylight
25 Sep - 15:18:16 10° W 15:22:58 84° S 15:30:05 10° E daylight
25 Sep - 17:37:37 10° W 17:43:45 70° NNW 17:54:55 10° ENE daylight
25 Sep - 19:57:46 10° W 20:05:44 35° NNW 20:19:02 10° NNE visible
25 Sep - 22:25:10 10° NW 22:29:34 12° NNW 22:34:36 10° NNW visible
